Regional Weather Roundup
Issued by NWS

Home | Current Version | Previous Version | Text Only | Print | Product List | Glossary Off
Versions: 1 2 3 4 5 6 7 8 9 10 11 12 13 14 15 16 17 18 19 20 21 22 23 24 25 26 27 28 29 30 31 32 33 34 35 36 37 38 39 40 41 42 43 44 45 46 47 48 49 50

000
ASUS45 KBOU 210207
RWRCO

WEATHER ROUNDUP FOR COLORADO
NATIONAL WEATHER SERVICE DENVER/BOULDER CO
700 PM MST SAT DEC 20 2014

NOTE: "FAIR" INDICATES FEW OR NO CLOUDS BELOW 12000 FEET WITH NO
SIGNIFICANT WEATHER AND/OR OBSTRUCTIONS TO VISIBILITY.

COZ001>005-013-030-031-210300-
...NORTHWEST COLORADO...

CITY           SKY/WX    TMP DP  RH WIND       PRES   REMARKS
CRAIG          CLOUDY    29  27  92 CALM      30.06R
HAYDEN         CLOUDY    27  23  86 CALM      30.04S
MEEKER         LGT SNOW  30  28  92 CALM      30.07R FOG
MOUNT WERNER   NOT AVBL
STEAMBOAT SPGS CLOUDY    25  24  96 CALM      30.03F
WALDEN         MOCLDY    23  19  86 S12       29.97F WCI  12
$$

COZ006>008-011-210300-
...WEST CENTRAL VALLEYS...

CITY           SKY/WX    TMP DP  RH WIND       PRES   REMARKS
GRAND JUNCTION CLOUDY    34  30  85 NW6       30.11S WCI  29
MONTROSE       CLOUDY    33  25  72 NE5       30.11F WCI  29
EAGLE          NOT AVBL
RIFLE          LGT SNOW  30  28  92 SE3       30.11S FOG
DELTA          CLOUDY    37  28  68 NE7       30.11S
NUCLA          CLOUDY    34  28  80 E6        30.13F WCI  29
$$

COZ017>023-064>068-210300-
...SOUTHWEST COLORADO...

CITY           SKY/WX    TMP DP  RH WIND       PRES   REMARKS
DURANGO        CLOUDY    32  27  81 E3        30.10S
CORTEZ         CLOUDY    33  28  81 E3        30.12R
PAGOSA SPRINGS CLOUDY    30  24  77 CALM      30.10S
TELLURIDE      CLOUDY    28  21  75 CALM      30.10F
WOLF CREEK PAS FOG       16  16 100 MISG      30.09R VSB 1/2
$$

COZ009-010-012-014-032>034-037-058>063-210300-
...CENTRAL COLORADO...

CITY           SKY/WX    TMP DP  RH WIND       PRES   REMARKS
ASPEN          LGT SNOW  25  22  88 NW5       30.05S FOG     WCI  19
BUENA VISTA    MOCLDY    33  15  49 W9        30.00S WCI  25
COPPER MTN     LGT SNOW  19  14  79 W12G20    30.02F WCI   7
BERTHOUD PASS  CLOUDY    10   5  79 MISG      29.98F
COTTONWOOD PAS CLOUDY    30  14  51 NW8       30.02S WCI  23
GUNNISON       CLOUDY    25  16  68 CALM      30.10S
KREMMLING      CLOUDY    23  19  86 CALM      30.05F
LEADVILLE      LGT SNOW  21  17  84 N5        30.02S FOG     WCI  15
SALIDA         MOCLDY    36  20  52 SW12G22   30.07S
SUNLIGHT       LGT SNOW  23  21  93 CALM      30.05F
WILKERSON PASS CLOUDY    21  12  68 W6        30.03S WCI  14
$$

COZ069>075-210300-
...SAN LUIS VALLEY/SANGRE DE CRISTO MOUNTAINS...

CITY           SKY/WX    TMP DP  RH WIND       PRES   REMARKS
ALAMOSA        CLOUDY    21  15  78 SE5       30.04S WCI  15
LA VETA PASS   MOCLDY    21  12  68 SW7       30.01S WCI  13
SAGUACHE       CLOUDY    28  14  54 N8        30.04F WCI  20
$$

COZ035-036-038>040-210300-
...NORTHERN COLORADO FRONT RANGE...

CITY           SKY/WX    TMP DP  RH WIND       PRES   REMARKS
DENVER INTL AP CLOUDY    34  23  64 S9        29.93S WCI  27
DMNS CITY PARK   N/A     39  21  48 N1        29.93R
AURORA         MOCLDY    36  23  60 S6        29.94F
FRONT RANGE AP NOT AVBL
ERIE MUNI ARPT   N/A     33  22  64 CALM      29.94R
BOULDER MUN AP CLOUDY    37  21  52 CALM      29.94R
CENTENNIAL     CLOUDY    34  23  64 S3        29.93F
BROOMFIELD     MOCLDY    41  19  42 CALM      29.95R
FORT COLLINS   CLOUDY    37  18  44 CALM      29.96S
LONGMONT       CLOUDY    35  23  63 S3        29.96S
$$

COZ041-046-047-076>085-087-088-210300-
...PIKES PEAK/PALMER DIVIDE AND SOUTHERN FOOTHILLS...

CITY           SKY/WX    TMP DP  RH WIND       PRES   REMARKS
COLO. SPRINGS  MOCLDY    35  17  47 N7        29.96S WCI  29
A. F. ACADEMY  CLOUDY    32  17  54 N5        29.95F WCI  28
ELLICOTT       NOT AVBL
FALCON         MOCLDY    33  21  61 N3        29.97S
FORT CARSON    MOCLDY    37  18  45 E2        29.94S
LIMON          MOCLDY    30  19  63 CALM      29.95F
MONUMENT HILL  CLOUDY    30  23  74 S7        29.94F WCI  23
TRINIDAD       CLEAR     30  17  58 W10       29.94F WCI  21
$$

COZ042>045-048>051-090-091-210300-
...NORTHEAST COLORADO...

CITY           SKY/WX    TMP DP  RH WIND       PRES   REMARKS
GREELEY ARPT   CLOUDY    28  12  50 N7        29.94R WCI  21
AKRON          MOCLDY    34  23  64 SE5       29.94F WCI  30
BURLINGTON     PTCLDY    34  27  75 S6        29.95S WCI  29
WRAY           CLOUDY    32  29  87 W3        29.96S
STERLING       MOCLDY    27  27 100 CALM      29.95R FOG
HOLYOKE        PTCLDY    36  32  87 W8        29.95S
FORT MORGAN    MOCLDY    31  19  61 CALM      29.95S
$$

COZ086-089-092>099-210300-
...SOUTHEAST COLORADO...

CITY           SKY/WX    TMP DP  RH WIND       PRES   REMARKS
PUEBLO         MOCLDY    35  21  56 NE9       29.93R WCI  28
LA JUNTA       CLEAR     33  25  72 NE6       29.94S WCI  28
LAMAR          CLEAR     30  23  75 CALM      29.94F
SPRINGFIELD      N/A     31  25  78 CALM      29.96S
$$



USA.gov is the U.S. government's official web portal to all federal, state and local government web resources and services.